TimePDT,TemperatureF,Dew PointF,Humidity,Sea Level PressureIn,VisibilityMPH,Wind Direction,Wind SpeedMPH,Gust SpeedMPH,PrecipitationIn,Events,Conditions,WindDirDegrees,DateUTC
12:58 AM,62.2,26.2,25,30.01,10.0,Calm,Calm,-,N/A,,Clear,0,2013-09-24 07:58:00
1:58 AM,57.6,24.3,28,30.01,10.0,Calm,Calm,-,N/A,,Clear,0,2013-09-24 08:58:00
2:58 AM,54.0,22.6,30,30.00,10.0,NW,1.2,-,N/A,,Clear,320,2013-09-24 09:58:00
3:58 AM,55.9,26.6,32,30.00,10.0,ESE,2.3,-,N/A,,Clear,110,2013-09-24 10:58:00
4:58 AM,53.6,23.4,31,30.00,10.0,Calm,Calm,-,N/A,,Clear,0,2013-09-24 11:58:00
5:58 AM,51.1,23.2,34,30.01,10.0,Calm,Calm,-,N/A,,Clear,0,2013-09-24 12:58:00
6:58 AM,51.1,24.1,35,30.02,10.0,SSE,1.2,-,N/A,,Clear,150,2013-09-24 13:58:00
7:58 AM,55.9,25.3,31,30.02,10.0,Calm,Calm,-,N/A,,Clear,0,2013-09-24 14:58:00
8:58 AM,64.9,25.5,23,30.02,10.0,Calm,Calm,-,N/A,,Clear,0,2013-09-24 15:58:00
9:58 AM,69.8,26.6,20,30.02,10.0,Calm,Calm,-,N/A,,Clear,0,2013-09-24 16:58:00
10:58 AM,73.9,27.0,18,30.00,10.0,Variable,2.3,-,N/A,,Clear,0,2013-09-24 17:58:00
11:58 AM,79.9,27.1,14,29.97,10.0,SE,8.1,-,N/A,,Clear,140,2013-09-24 18:58:00
12:58 PM,82.0,26.2,13,29.94,10.0,SE,8.1,-,N/A,,Clear,130,2013-09-24 19:58:00
1:58 PM,84.0,27.1,13,29.90,10.0,East,9.2,-,N/A,,Clear,90,2013-09-24 20:58:00
2:58 PM,86.2,26.4,11,29.86,10.0,East,8.1,-,N/A,,Clear,100,2013-09-24 21:58:00
3:58 PM,87.1,25.2,11,29.83,10.0,East,6.9,20.7,N/A,,Clear,100,2013-09-24 22:58:00
4:58 PM,87.6,19.9,8,29.80,10.0,WSW,18.4,-,N/A,,Clear,240,2013-09-24 23:58:00
5:58 PM,86.0,21.4,9,29.78,10.0,SW,8.1,-,N/A,,Clear,220,2013-09-25 00:58:00
6:58 PM,83.1,23.9,11,29.78,10.0,WSW,9.2,-,N/A,,Clear,250,2013-09-25 01:58:00
7:58 PM,82.4,21.2,10,29.78,10.0,SE,6.9,20.7,N/A,,Clear,130,2013-09-25 02:58:00
8:58 PM,81.9,20.7,10,29.78,10.0,SSE,4.6,-,N/A,,Clear,160,2013-09-25 03:58:00
9:58 PM,81.7,18.5,10,29.76,10.0,South,5.8,-,0.00,,Clear,190,2013-09-25 04:58:00
10:58 PM,79.9,22.6,12,29.74,10.0,ESE,6.9,-,N/A,,Clear,110,2013-09-25 05:58:00
11:58 PM,72.7,26.2,18,29.71,10.0,North,4.6,-,N/A,,Clear,10,2013-09-25 06:58:00